Chetumal, Mexico

7:22 AM on September 21, 2017 (GMT +0000)
Chetumal International

Weather History for MMCM - December, 2012

Change the Weather History Date:

Tuesday, December 4, 2012

  Actual Average Record
Temperature  
Mean Temperature 78 °F -  
Max Temperature 89 °F 80 °F 89 °F (2012)
Min Temperature 68 °F 68 °F 63 °F (2013)
Cooling Degree Days 14    
Growing Degree Days 28 (Base 50)    
Moisture  
Dew Point 73 °F    
Average Humidity 79    
Maximum Humidity 97    
Minimum Humidity 34    
Precipitation  
Precipitation 0.04 in - - ()
Sea Level Pressure  
Sea Level Pressure 30.05 in    
Wind  
Wind Speed 6 mph ()    
Max Wind Speed 12 mph    
Max Gust Speed -    
Visibility 6.5 miles    
Events Rain    
Averages and records for this station are not official NWS values.
T = Trace of Precipitation, MM = Missing Value Source: Averaged Metar Reports

Daily Weather History Graph

Daily Weather History Graph

Search for Another Location

Airport or City:

Trip Planner

Search our weather history database for the weather conditions in past years. The results will help you decide how hot, cold, wet, or windy it might be!

Date:

Astronomy

Dec. 04, 2012 Rise Set
Actual Time 6:11 AM CST 5:15 PM CST
Civil Twilight 5:47 AM CST 5:39 PM CST
Nautical Twilight 5:20 AM CST 6:06 PM CST
Astronomical Twilight 4:53 AM CST 6:33 PM CST
Moon 10:31 PM CST (12/4) 10:32 AM CST (12/4)
Length of Visible Light 11h 51m
Length of Day
11h 04m
Waning Gibbous, 69% of the Moon is Illuminated
Dec 4
Waning Gibbous
Dec 6
Last Quarter
Dec 13
New
Dec 19
First Quarter
Dec 28
Full

Hourly Weather History & Observations

Time (CST) Temp. Heat Index Dew Point Humidity Pressure Visibility Wind Dir Wind Speed Gust Speed Precip Events Conditions
2:45 AM 70 °F - 69 °F 94% 30.01 in 5 mi NW 2.2 mph - -   Overcast
5:45 AM 70 °F - 69 °F 97% 30.03 in 6 mi NNW 2.2 mph - -   Partly Cloudy
6:45 AM 80.6 °F 85.4 °F 73.4 °F 79% 30.05 in 7.0 mi NNW 5.8 mph - N/A   Overcast
8:45 AM 80.6 °F 85.4 °F 73.4 °F 79% 30.08 in 7.0 mi North 5.8 mph - N/A   Overcast
8:50 AM 75 °F - 71 °F 84% 30.09 in 6 mi ENE 4.5 mph - - Rain Light Drizzle
9:45 AM 80.6 °F 85.4 °F 73.4 °F 79% 30.10 in 7.0 mi NNW 11.5 mph - N/A   Overcast
10:45 AM 80.6 °F 85.4 °F 73.4 °F 79% 30.08 in 7.0 mi NNW 11.5 mph - N/A   Overcast
11:45 AM 80.6 °F 85.4 °F 73.4 °F 79% 30.06 in 7.0 mi NNW 11.5 mph - N/A   Overcast
11:50 AM 83 °F - 67 °F 48% 30.07 in 6 mi ENE 6.7 mph - -   Partly Cloudy
1:45 PM 84.2 °F 96.1 °F 78.8 °F 84% 30.01 in 7.0 mi NNW 11.5 mph - N/A   Mostly Cloudy
2:45 PM 84.2 °F 96.1 °F 78.8 °F 84% 30.01 in 7.0 mi NNW 11.5 mph - N/A   Mostly Cloudy
2:50 PM 87 °F - 63 °F 34% 30.01 in 6 mi ENE 6.7 mph - -   Scattered Clouds
3:45 PM 84.2 °F 96.1 °F 78.8 °F 84% 30.00 in 7.0 mi North 11.5 mph - N/A   Mostly Cloudy
4:45 PM 84.2 °F 96.1 °F 78.8 °F 84% 30.01 in 7.0 mi North 11.5 mph - N/A   Mostly Cloudy
5:45 PM 82.4 °F 92.4 °F 78.8 °F 89% 30.03 in 7.0 mi North 11.5 mph - N/A   Mostly Cloudy
5:50 PM 79 °F - 68 °F 61% 30.04 in 5 mi ENE 4.5 mph - -   Mostly Cloudy
7:45 PM 80.6 °F 86.2 °F 75.2 °F 84% 30.05 in 7.0 mi North 11.5 mph - N/A   Mostly Cloudy
8:45 PM 77 °F - 71 °F 75% 30.08 in 5 mi ENE 4.5 mph - -   Mostly Cloudy
9:45 PM 78.8 °F - 75.2 °F 89% 30.06 in 7.0 mi North 11.5 mph - N/A   Mostly Cloudy
10:45 PM 78.8 °F - 75.2 °F 89% 30.05 in 7.0 mi North 11.5 mph - N/A   Mostly Cloudy
11:45 PM 74 °F - 70 °F 83% 30.05 in 5 mi West 2.2 mph - -   Partly Cloudy
11:45 PM 78.8 °F - 75.2 °F 89% 30.04 in 7.0 mi SSW 11.5 mph - N/A   Mostly Cloudy